Date,TemperatureHighF,TemperatureAvgF,TemperatureLowF,DewpointHighF,DewpointAvgF,DewpointLowF,HumidityHigh,HumidityAvg,HumidityLow,PressureMaxIn,PressureMinIn,WindSpeedMaxMPH,WindSpeedAvgMPH,GustSpeedMaxMPH,PrecipitationSumIn
2013-1-1,35,27,13,27,14,1,81,58,42,0.00,40.00,7,-4,19,0.00
2013-1-2,26,14,4,11,3,-8,77,59,44,0.00,40.00,7,-27,19,0.00
2013-1-3,19,10,3,2,-4,-8,72,53,34,0.00,40.00,6,-27,15,0.00
2013-1-4,37,24,4,24,14,-1,82,66,49,0.00,40.00,6,-12,17,0.00
2013-1-5,37,32,20,27,19,11,80,59,35,0.00,40.00,9,-4,21,0.00
2013-1-6,39,28,19,29,22,14,87,75,57,0.00,40.00,4,-14,10,0.04
2013-1-7,35,29,16,32,18,10,90,66,37,0.00,40.00,7,-41,16,0.00
2013-1-8,43,26,9,24,16,5,87,69,43,0.00,40.00,6,-28,12,0.00
2013-1-9,44,30,21,31,24,18,91,77,50,0.00,40.00,4,-27,19,0.00
2013-1-10,45,40,31,32,25,22,74,55,42,0.00,40.00,14,5,35,0.00
2013-1-11,38,33,26,35,27,22,99,78,54,0.00,40.00,4,1,10,0.01
2013-1-12,41,37,35,41,37,35,99,99,99,0.00,40.00,3,1,6,0.00
2013-1-13,45,40,36,45,40,36,99,99,99,0.00,40.00,4,1,7,0.00
2013-1-14,60,45,36,57,38,27,99,78,36,0.00,40.00,6,2,16,0.00
2013-1-15,40,34,29,29,25,21,92,70,47,0.00,40.00,6,1,11,0.00
2013-1-16,33,31,30,33,30,25,99,94,76,0.00,40.00,4,1,7,2.41
2013-1-17,41,31,22,31,21,2,99,70,41,0.00,40.00,7,2,20,0.00
2013-1-18,23,17,9,6,-3,-12,65,42,27,0.00,40.00,10,3,21,0.00
2013-1-19,44,32,18,27,18,5,68,56,39,0.00,40.00,6,2,14,0.00
2013-1-20,49,37,25,34,21,1,84,54,28,0.00,40.00,10,4,29,0.00
2013-1-21,29,23,18,20,6,-3,91,50,31,0.00,40.00,7,2,20,0.08
2013-1-22,24,18,6,19,8,-8,92,69,25,0.00,40.00,9,2,20,0.73
2013-1-23,10,4,-1,1,-10,-16,79,53,30,0.00,40.00,9,2,17,0.00
2013-1-24,15,6,-5,-7,-13,-17,60,42,27,0.00,40.00,11,4,27,0.00
2013-1-25,21,12,5,4,-6,-8,58,43,27,0.00,40.00,10,3,25,0.00
2013-1-26,23,15,8,9,0,-9,81,54,28,0.00,40.00,7,3,18,0.00
2013-1-27,27,17,11,4,-2,-9,68,44,20,0.00,40.00,8,3,19,0.00
2013-1-28,25,20,12,22,10,-4,94,67,33,0.00,40.00,3,1,10,3.87
2013-1-29,35,28,17,34,25,16,99,87,67,0.00,40.00,4,1,7,0.23
2013-1-30,51,37,34,51,37,34,99,99,99,0.00,40.00,4,2,7,0.48
2013-1-31,56,39,30,56,22,7,99,51,35,0.00,40.00,13,6,30,0.01
2013-2-1,30,26,19,23,10,5,89,51,36,0.00,40.00,9,-39,19,0.06
2013-2-2,27,22,14,15,7,3,72,54,37,0.00,40.00,8,-20,14,0.00
2013-2-3,31,24,17,18,15,13,90,68,48,0.00,40.00,6,-20,10,0.00
2013-2-4,29,24,18,18,7,-2,78,50,26,0.00,40.00,9,-19,22,0.00
2013-2-5,32,21,10,13,4,-1,69,50,27,0.00,40.00,5,-33,13,0.00
2013-2-6,37,27,19,23,14,-5,91,61,31,0.00,40.00,7,-19,19,0.12
2013-2-7,27,20,11,-1,-4,-9,53,35,22,0.00,40.00,6,-13,13,0.00
2013-2-8,23,19,16,16,12,-3,91,76,30,0.00,40.00,8,3,21,7.41
2013-2-9,21,18,15,20,10,0,95,74,48,0.00,40.00,11,-8,36,20.21
2013-2-10,37,22,8,10,2,-3,67,43,19,0.00,40.00,9,-26,21,0.00
2013-2-11,30,22,13,30,19,6,99,87,67,0.00,40.00,4,-55,9,1.47
2013-2-12,46,38,30,36,29,26,99,71,45,0.00,40.00,8,-33,21,0.00
2013-2-13,42,34,27,27,22,20,76,62,41,0.00,40.00,6,-34,14,0.00
2013-2-14,43,33,26,25,22,18,83,65,37,0.00,40.00,5,-48,13,0.00
2013-2-15,52,36,24,28,24,20,87,64,36,0.00,40.00,7,-5,17,0.00
2013-2-16,41,35,27,31,21,5,93,59,38,0.00,40.00,6,-34,13,0.15
2013-2-17,27,21,15,15,5,0,81,51,37,0.00,40.00,15,-72,31,0.15
2013-2-18,31,21,13,3,-2,-7,59,38,19,0.00,40.00,12,-59,31,0.00
2013-2-19,42,31,18,38,14,-5,99,52,27,0.00,40.00,5,-12,12,0.05
2013-2-20,36,32,26,36,22,15,99,68,49,0.00,40.00,7,-25,18,0.00
2013-2-21,29,24,20,18,12,9,76,61,46,0.00,40.00,9,-11,22,0.00
2013-2-22,41,31,20,24,19,15,92,65,36,0.00,40.00,6,2,15,0.00
2013-2-23,36,34,30,35,30,24,99,88,69,0.00,40.00,4,-34,8,0.41
2013-2-24,36,34,33,35,34,33,99,99,96,0.00,40.00,4,-13,10,11.82
2013-2-25,41,36,30,35,33,30,99,92,73,0.00,40.00,2,-35,7,0.01
2013-2-26,42,37,34,36,33,30,99,85,67,0.00,40.00,5,-41,9,0.00
2013-2-27,39,36,33,37,34,29,99,91,74,0.00,40.00,7,-12,17,2.95
2013-2-28,47,38,33,39,35,33,99,90,68,0.00,40.00,4,-20,11,0.00
2013-3-1,40,37,33,37,30,27,99,77,60,0.00,40.00,6,-26,14,0.00
2013-3-2,43,36,30,31,27,25,95,71,52,0.00,40.00,7,-4,15,0.26
2013-3-3,42,34,29,30,27,25,96,78,56,0.00,40.00,6,-27,15,0.66
2013-3-4,37,32,28,26,23,21,75,68,58,0.00,40.00,7,-38,21,0.04
2013-3-5,46,35,26,33,26,21,92,71,45,0.00,40.00,6,-27,12,0.00
2013-3-6,40,37,33,35,30,25,96,77,59,0.00,40.00,9,3,18,0.00
2013-3-7,36,33,32,33,29,25,99,85,64,0.00,40.00,9,-4,19,2.95
2013-3-8,45,37,31,34,28,22,99,74,45,0.00,40.00,6,-12,17,0.62
2013-3-9,59,41,27,29,21,12,84,52,15,0.00,40.00,4,-26,9,0.00
2013-3-10,49,37,25,32,27,24,95,71,40,0.00,40.00,8,-12,14,0.00
2013-3-11,53,42,33,38,32,27,95,70,37,0.00,40.00,6,-26,11,0.00
2013-3-12,51,47,42,51,46,38,99,97,84,0.00,40.00,7,-18,15,0.45
2013-3-13,50,42,33,49,32,22,99,69,38,0.00,40.00,7,-19,17,0.00
2013-3-14,36,31,21,28,17,5,87,57,38,0.00,40.00,9,-4,21,0.00
2013-3-15,41,28,18,32,13,3,98,56,25,0.00,40.00,9,-40,25,1.56
2013-3-16,35,30,24,29,15,8,93,56,33,0.00,40.00,6,-26,11,0.00
2013-3-17,34,27,19,15,8,0,77,46,25,0.00,40.00,11,-11,25,0.00
2013-3-18,38,27,13,24,3,-4,77,38,18,0.00,40.00,6,-49,9,0.47
2013-3-19,34,31,26,33,29,25,99,94,81,0.00,40.00,7,-26,14,5.36
2013-3-20,39,31,26,27,22,17,97,70,44,0.00,40.00,9,-4,20,0.07
2013-3-21,44,31,18,20,15,9,85,55,24,0.00,40.00,6,-34,12,0.00
2013-3-22,41,33,25,29,18,12,89,56,32,0.00,40.00,6,-26,14,0.08
2013-3-23,43,34,25,23,20,16,80,56,34,0.00,40.00,9,4,28,0.00
2013-3-24,46,38,31,26,23,22,73,55,38,0.00,40.00,9,3,20,0.00
2013-3-25,44,37,26,30,26,22,88,66,46,0.00,40.00,6,-6,12,0.00
2013-3-26,50,41,34,31,24,16,82,55,26,0.00,40.00,7,-12,17,0.00
2013-3-27,52,41,30,35,26,23,83,58,35,0.00,40.00,9,-40,24,0.00
2013-3-28,50,42,36,36,33,28,97,72,44,0.00,40.00,7,-20,12,0.01
2013-3-29,55,46,38,37,33,30,78,62,40,0.00,40.00,6,-20,14,0.00
2013-3-30,57,44,33,32,24,13,88,50,19,0.00,40.00,6,-5,15,0.00
2013-3-31,60,43,27,42,22,-100,94,51,20,0.00,40.00,10,3,21,0.26
2013-4-1,58,44,34,45,36,11,99,76,32,0.00,40.00,8,-11,22,0.29
2013-4-2,39,33,28,19,10,7,50,37,28,0.00,40.00,9,-32,22,0.00
2013-4-3,46,36,28,15,9,4,51,34,17,0.00,40.00,9,-24,26,0.00
2013-4-4,57,42,30,21,13,7,51,31,14,0.00,40.00,7,-11,17,0.00
2013-4-5,59,46,37,28,24,18,66,44,22,0.00,40.00,9,-46,22,0.00
2013-4-6,45,35,27,20,6,0,51,31,15,0.00,40.00,11,-10,27,0.00
2013-4-7,60,42,25,35,20,9,66,43,23,0.00,40.00,12,-24,32,0.00
2013-4-8,62,51,40,40,34,27,91,56,26,0.00,40.00,7,-33,17,0.00
2013-4-9,62,51,44,48,43,36,99,75,46,0.00,40.00,7,-5,21,0.44
2013-4-10,59,51,45,53,46,41,99,85,58,0.00,40.00,5,-40,12,0.83
2013-4-11,49,45,41,47,34,17,99,69,31,0.00,40.00,6,-19,13,0.02
2013-4-12,41,36,33,35,30,18,98,81,39,0.00,40.00,5,-29,10,0.49
2013-4-13,53,42,35,41,37,34,99,82,49,0.00,40.00,4,-42,9,0.06
2013-4-14,51,44,35,42,35,27,99,74,40,0.00,40.00,6,-27,16,0.01
2013-4-15,60,45,31,35,32,28,95,64,32,0.00,40.00,6,-35,14,0.00
2013-4-16,67,52,39,54,42,34,87,69,41,0.00,40.00,12,-24,24,0.05
2013-4-17,63,55,42,55,34,26,93,48,26,0.00,40.00,9,-32,21,0.00
2013-4-18,63,50,32,36,30,23,89,50,29,0.00,40.00,9,-67,21,0.00
2013-4-19,74,63,52,64,54,33,96,73,45,0.00,40.00,12,-38,30,0.08
2013-4-20,65,50,41,65,36,19,99,61,31,0.00,40.00,9,-18,21,0.19
2013-4-21,53,42,34,23,17,11,63,37,19,0.00,40.00,9,-46,17,0.00
2013-4-22,55,42,29,31,23,16,84,52,23,0.00,40.00,8,-53,17,0.00
2013-4-23,42,38,30,41,35,28,97,87,76,0.00,40.00,4,-78,11,0.00
2013-4-24,78,59,42,49,43,33,98,62,20,0.00,40.00,7,-26,17,0.00
2013-4-25,63,55,42,52,33,21,82,45,21,0.00,40.00,9,-67,23,0.00
2013-4-26,62,48,32,38,30,26,88,55,27,0.00,40.00,7,-96,14,0.00
2013-4-27,68,53,34,38,32,20,94,51,17,0.00,40.00,6,-54,12,0.00
2013-4-28,72,55,36,38,35,30,91,52,24,0.00,40.00,7,-61,15,0.01
2013-4-29,71,57,42,42,38,33,77,51,30,0.00,40.00,7,-55,17,0.00
2013-4-30,73,62,52,41,33,29,60,35,21,0.00,40.00,10,-39,17,0.00
2013-5-1,76,59,39,39,32,27,74,40,17,0.00,40.00,8,-85,16,0.00
2013-5-2,82,58,42,43,36,25,81,48,19,0.00,40.00,10,-41,18,0.00
2013-5-3,69,55,40,46,39,35,86,59,34,0.00,40.00,6,-77,13,0.00
2013-5-4,74,55,41,47,39,24,96,61,15,0.00,40.00,7,-49,14,0.00
2013-5-5,73,53,35,41,36,33,93,57,23,0.00,40.00,7,-33,15,0.00
2013-5-6,76,57,37,48,36,19,94,55,11,0.00,40.00,7,-12,12,0.00
2013-5-7,82,64,44,57,45,30,97,59,15,0.00,40.00,6,-20,12,0.00
2013-5-8,74,64,54,66,58,53,98,81,53,0.00,40.00,7,-33,15,0.62
2013-5-9,67,62,58,61,59,56,99,91,70,0.00,40.00,4,-20,9,0.84
2013-5-10,80,67,57,60,55,-100,99,71,38,0.00,40.00,4,-28,11,0.00
2013-5-11,68,64,59,66,61,56,99,91,78,0.00,40.00,7,-26,15,0.25
2013-5-12,69,60,49,61,46,-100,99,66,33,0.00,40.00,7,-69,18,0.00
2013-5-13,56,48,42,35,29,25,71,47,30,0.00,40.00,6,2,17,0.00
2013-5-14,60,49,37,36,30,24,87,53,25,0.00,40.00,7,-12,16,0.00
2013-5-15,68,50,33,53,38,27,96,67,24,0.00,40.00,8,-21,18,0.36
2013-5-16,80,59,46,57,24,-100,99,57,20,0.00,40.00,8,-54,23,0.00
2013-5-17,69,56,49,44,36,-100,78,54,28,0.00,40.00,7,-33,18,0.00
2013-5-18,74,58,42,46,41,29,95,59,19,0.00,40.00,6,-41,10,0.00
2013-5-19,70,56,46,56,50,45,99,82,47,0.00,40.00,5,-75,10,0.13
2013-5-20,77,65,55,64,60,55,99,85,59,0.00,40.00,6,-41,12,0.00
2013-5-21,77,62,52,64,58,51,99,87,61,0.00,40.00,4,-7,12,0.39
2013-5-22,63,56,52,60,56,52,99,97,88,0.00,40.00,3,-48,8,1.00
2013-5-23,71,61,53,70,60,53,99,98,85,0.00,40.00,4,-63,12,0.20
2013-5-24,71,62,48,69,58,45,99,89,67,0.00,40.00,6,-48,16,0.29
2013-5-25,49,46,35,48,45,34,99,95,80,0.00,40.00,7,-40,17,1.32
2013-5-26,56,47,36,42,39,36,98,77,53,0.00,40.00,7,-46,20,0.52
2013-5-27,70,54,37,45,37,31,97,59,23,0.00,40.00,6,-19,21,0.00
2013-5-28,75,58,39,44,40,33,95,58,27,0.00,40.00,5,-35,11,0.00
2013-5-29,60,56,52,60,55,44,99,95,71,0.00,40.00,2,-56,6,0.42
2013-5-30,88,72,55,72,62,55,99,75,39,0.00,40.00,4,-27,13,0.00
2013-5-31,94,78,63,69,64,56,99,67,31,0.00,40.00,5,-92,14,0.00
2013-6-1,94,79,65,71,66,58,97,67,29,0.00,40.00,6,-6,14,0.00
2013-6-2,92,77,68,71,67,-100,99,77,41,0.00,40.00,7,-33,22,1.41
2013-6-3,80,70,59,69,60,45,99,75,34,0.00,40.00,7,-48,14,0.00
2013-6-4,69,59,48,51,44,41,82,58,37,0.00,40.00,7,-34,17,0.00
2013-6-5,76,62,48,49,43,34,91,55,22,0.00,40.00,4,-41,12,0.00
2013-6-6,74,63,52,56,49,40,81,61,36,0.00,40.00,4,-76,12,0.00
2013-6-7,59,55,52,55,53,50,99,94,81,0.00,40.00,2,-67,6,1.33
2013-6-8,73,62,53,61,57,53,99,84,63,0.00,40.00,6,-54,16,1.32
2013-6-9,78,66,56,60,55,51,99,71,40,0.00,40.00,4,-48,13,0.00
2013-6-10,71,62,53,61,57,52,97,84,63,0.00,40.00,4,-35,12,0.23
2013-6-11,62,58,55,58,57,54,99,95,80,0.00,40.00,2,-70,8,1.30
2013-6-12,70,62,56,58,55,53,99,80,55,0.00,40.00,9,-5,20,0.00
2013-6-13,68,60,52,61,56,51,99,87,57,0.00,40.00,4,-13,9,0.12
2013-6-14,78,63,55,60,56,48,99,79,36,0.00,40.00,3,-13,7,0.00
2013-6-15,77,65,53,55,48,39,91,58,26,0.00,40.00,7,-34,13,0.00
2013-6-16,75,63,51,62,55,49,95,76,46,0.00,40.00,4,-34,12,0.00
2013-6-17,82,67,57,64,60,54,96,80,38,0.00,40.00,7,-6,15,0.07
2013-6-18,63,60,56,63,58,55,99,93,78,0.00,40.00,3,-20,9,0.04
2013-6-19,76,63,51,56,48,40,99,64,29,0.00,40.00,4,-35,11,0.00
2013-6-22,84,79,71,70,65,61,84,63,45,0.00,40.00,4,-110,9,0.01
2013-6-23,86,74,66,80,67,-100,99,89,69,0.00,40.00,4,-39,14,0.00
2013-6-24,92,76,68,74,70,66,99,84,44,0.00,40.00,7,-80,20,0.00
2013-6-25,90,76,68,72,69,66,99,80,47,0.00,40.00,4,-18,9,0.02
2013-6-26,80,71,68,72,67,-100,99,94,69,0.00,40.00,2,-87,7,0.42
2013-6-27,74,68,63,69,66,63,99,94,81,0.00,40.00,3,-35,7,0.00
2013-6-28,68,64,59,67,63,59,99,98,93,0.00,40.00,3,-94,7,1.02
2013-6-29,83,72,65,74,64,-100,99,86,59,0.00,40.00,4,-21,13,0.57
2013-6-30,86,74,68,73,69,67,99,85,58,0.00,40.00,2,1,10,0.00
2013-7-1,78,74,68,74,62,-100,99,87,77,0.00,40.00,2,1,7,1.56
2013-7-2,77,69,63,75,62,-100,99,94,92,0.00,40.00,4,-53,9,0.83
2013-7-3,88,74,62,76,69,62,99,87,59,0.00,40.00,5,-22,9,0.07
2013-7-4,92,81,70,77,70,-100,99,77,51,0.00,40.00,4,-19,9,0.00
2013-7-5,93,83,73,77,73,69,99,74,47,0.00,40.00,4,-19,11,0.00
2013-7-6,88,78,73,73,71,67,94,78,51,0.00,40.00,4,-64,11,0.00
2013-7-7,89,79,70,76,70,65,99,76,48,0.00,40.00,2,-26,7,0.00
2013-7-8,86,75,67,76,46,-100,99,77,66,0.00,40.00,3,-49,7,0.77
2013-7-9,75,70,67,70,63,-100,99,91,83,0.00,40.00,2,-60,7,0.00
2013-7-10,77,68,66,75,45,-100,99,82,84,0.00,40.00,4,-47,9,0.47
2013-7-11,84,75,68,76,39,-100,99,69,59,0.00,40.00,4,-17,10,0.00
2013-7-12,82,73,62,66,62,58,97,71,50,0.00,40.00,4,-77,9,0.00
2013-7-13,79,69,61,70,64,60,98,84,59,0.00,40.00,3,1,6,0.00
2013-7-14,87,77,67,73,66,-100,99,79,55,0.00,40.00,3,1,6,0.00
2013-7-15,93,80,68,72,69,66,99,71,43,0.00,40.00,3,-64,8,0.00
2013-7-16,91,80,68,73,68,65,91,68,44,0.00,40.00,4,-16,16,0.00
2013-7-17,93,80,68,75,70,67,97,73,44,0.00,40.00,3,-20,9,0.00
2013-7-18,90,78,72,79,70,-100,99,83,48,0.00,40.00,3,-17,7,5.20
2013-7-19,94,80,70,77,40,-100,99,63,48,0.00,40.00,5,-44,14,0.00
2013-7-20,87,77,70,75,69,66,94,78,54,0.00,40.00,4,2,10,0.00
2013-7-21,81,73,66,69,65,62,96,78,53,0.00,40.00,4,-25,9,0.00
2013-7-22,78,70,64,71,67,63,99,90,75,0.00,40.00,2,-15,8,0.22
2013-7-23,76,68,65,71,54,-100,99,88,80,0.00,40.00,2,-59,7,3.80
2013-7-24,80,68,59,70,56,-100,99,76,56,0.00,40.00,4,-16,13,0.00
2013-7-25,74,63,52,62,55,48,93,75,54,0.00,40.00,5,-16,12,0.00
2013-7-26,76,67,62,68,64,60,99,90,69,0.00,40.00,3,1,7,0.11
2013-7-27,84,71,60,67,61,56,98,73,40,0.00,40.00,3,-20,9,0.00
2013-7-28,81,70,60,70,62,-100,99,86,61,0.00,40.00,4,1,8,0.05
2013-7-29,83,70,65,70,58,-100,99,84,61,0.00,40.00,5,1,12,0.00
2013-7-30,79,71,60,64,58,53,98,66,40,0.00,40.00,4,-34,12,0.00
2013-7-31,82,70,58,65,59,54,97,72,39,0.00,40.00,3,-18,7,0.00
2013-8-1,81,69,59,68,63,59,99,85,49,0.00,40.00,6,1,14,0.77
2013-8-2,82,72,64,69,49,-100,99,68,39,0.00,40.00,4,-32,13,0.01
2013-8-3,79,69,61,63,59,54,97,71,45,0.00,40.00,3,-96,10,0.00
2013-8-4,75,65,57,64,57,55,94,78,50,0.00,40.00,3,1,11,0.06
2013-8-5,75,64,54,55,46,35,95,59,24,0.00,40.00,4,-40,15,0.00
2013-8-6,78,65,48,59,52,47,95,65,39,0.00,40.00,5,-15,10,0.00
2013-8-7,79,66,53,60,55,51,95,69,43,0.00,40.00,6,-53,12,0.00
2013-8-8,84,73,63,71,66,58,94,81,60,0.00,40.00,5,-15,12,0.00
2013-8-9,75,73,69,75,49,-100,99,83,88,0.00,40.00,4,-15,14,0.62
2013-8-10,80,70,59,68,61,50,99,74,36,0.00,40.00,4,-19,12,0.00
2013-8-11,79,66,53,59,54,48,96,71,37,0.00,40.00,2,-92,9,0.00
2013-8-12,81,70,57,64,57,53,97,67,43,0.00,40.00,4,-20,9,0.00
2013-8-14,-200,0,200,-100,-100,-100,0,0,100,0.00,40.00,3,3,11,0.00
2013-8-15,-200,0,200,-100,-100,-100,63,15,45,0.00,40.00,4,2,7,0.00
2013-8-16,-200,0,200,-100,-100,-100,40,20,40,0.00,40.00,2,2,6,0.00
2013-8-17,77,77,77,57,57,57,50,50,50,0.00,40.00,1,1,4,0.00
2013-8-18,74,37,74,64,-18,-100,69,34,69,0.00,40.00,1,0,1,0.00
2013-8-19,-200,0,200,-100,-100,-100,50,36,46,0.00,40.00,3,2,8,0.00
2013-8-20,68,68,68,62,62,62,81,81,81,0.00,40.00,0,0,1,0.00
2013-8-21,69,66,64,64,63,62,92,89,84,0.00,40.00,1,0,1,0.00
2013-9-17,47,47,47,45,45,45,92,92,92,0.00,40.00,1,1,2,0.00
2013-9-21,71,70,68,63,62,62,85,80,75,0.00,40.00,4,4,17,0.00
2013-9-22,68,55,66,65,27,-100,91,52,55,0.00,40.00,3,2,10,0.00
2013-9-24,58,58,56,44,43,42,64,57,55,0.00,40.00,4,2,13,0.00
2013-10-7,67,67,67,66,66,66,96,96,96,0.00,40.00,6,6,28,0.00
2013-10-13,48,24,48,47,-26,-100,96,48,96,0.00,40.00,0,0,1,0.00
2013-10-29,46,46,46,16,16,16,29,29,29,0.00,40.00,1,1,4,0.00
2013-10-30,40,40,40,33,33,33,77,77,77,0.00,40.00,1,1,4,0.00
2013-10-31,33,33,33,32,32,32,95,95,95,0.00,40.00,2,2,4,0.00
2013-11-1,66,63,60,53,48,44,64,60,55,0.00,40.00,2,2,10,0.00
2013-11-2,52,48,44,46,44,43,96,88,80,0.00,40.00,1,1,2,0.00
2013-11-3,44,35,41,41,15,-100,88,70,83,0.00,40.00,3,2,11,0.00
2013-11-4,41,41,39,16,14,13,38,32,31,0.00,40.00,2,2,7,0.00
2013-11-17,43,42,41,43,42,41,99,99,99,0.00,40.00,1,1,4,0.00
2013-11-18,50,50,50,41,41,41,72,72,72,0.00,40.00,2,2,3,0.00
2013-11-19,43,43,43,26,26,26,50,50,50,0.00,40.00,2,2,10,0.00
2013-11-20,32,31,31,16,15,14,52,51,50,0.00,40.00,7,4,16,0.00
2013-11-21,39,39,39,15,15,15,36,36,36,0.00,40.00,3,3,6,0.00
2013-11-23,39,32,39,39,16,-100,99,82,99,0.00,40.00,2,1,12,0.03
2013-12-4,32,32,32,26,26,26,80,80,80,0.00,40.00,1,1,1,0.00
2013-12-6,38,38,38,38,38,38,99,99,99,0.00,40.00,1,1,2,0.00
2013-12-7,36,23,34,32,-15,-100,93,50,58,0.00,40.00,2,1,9,0.00
2013-12-8,30,29,28,13,12,11,52,48,44,0.00,40.00,2,1,7,0.00
2013-12-9,26,26,26,23,23,23,86,86,86,0.00,40.00,1,1,4,0.00
2013-12-10,29,29,29,25,25,25,84,84,84,0.00,40.00,2,2,7,0.00